This is the latest recevied weather packets stored in our database for station/object F4BQN-15. If no packets are shown the sender has not sent any weather packets the latest 10 day(s).
| Time | Temp. | Humidity | Pressure | Rain* | Wind** | Luminosity | Snow |
|---|---|---|---|---|---|---|---|
| 1777986921 | 18.89° C | 46% | 984.2 hPa | - | - | - | - |
| 1777986021 | 20° C | 46% | 984.3 hPa | - | - | - | - |
| 1777985121 | 21.67° C | 44% | 984.1 hPa | - | - | - | - |
| 1777984221 | 20.56° C | 46% | 983.9 hPa | - | - | - | - |
| 1777983321 | 22.22° C | 45% | 983.8 hPa | - | - | - | - |
| 1777982420 | 24.44° C | 44% | 983.6 hPa | - | - | - | - |
| 1777981520 | 25° C | 42% | 983.6 hPa | - | - | - | - |
| 1777980620 | 23.89° C | 43% | 983.7 hPa | - | - | - | - |
| 1777979720 | 23.33° C | 43% | 983.9 hPa | - | - | - | - |
| 1777978820 | 21.67° C | 44% | 984 hPa | - | - | - | - |
| 1777977920 | 21.11° C | 45% | 984.1 hPa | - | - | - | - |
| 1777977020 | 21.11° C | 44% | 984.2 hPa | - | - | - | - |
| 1777976120 | 20.56° C | 45% | 984.1 hPa | - | - | - | - |
| 1777975220 | 20.56° C | 44% | 984.1 hPa | - | - | - | - |
| 1777974320 | 20.56° C | 45% | 984.2 hPa | - | - | - | - |
| 1777973419 | 20° C | 45% | 984.2 hPa | - | - | - | - |
| 1777972519 | 19.44° C | 45% | 984.1 hPa | - | - | - | - |
| 1777971619 | 18.89° C | 45% | 984.1 hPa | - | - | - | - |
| 1777970719 | 18.89° C | 46% | 984 hPa | - | - | - | - |
| 1777969819 | 18.33° C | 45% | 984.1 hPa | - | - | - | - |
| 1777968919 | 18.33° C | 46% | 984.1 hPa | - | - | - | - |
| 1777968019 | 17.78° C | 45% | 984 hPa | - | - | - | - |
| 1777967119 | 17.22° C | 46% | 984 hPa | - | - | - | - |
| 1777966219 | 17.22° C | 46% | 984.1 hPa | - | - | - | - |
| 1777965318 | 17.22° C | 46% | 984 hPa | - | - | - | - |
* Rain since midnight (hover to see other rain measurements)
** Current wind speed in m/s (hover to see current wind gust speed)